sat.trackr.live / text

‹ back to catalog

STARLINK-34506

NORAD 64432 · 2025-129W

PAYLOAD ACTIVE UNKNOWN

§ Identity

Operator
Country
US
Launch date
2025-06-17
Launch site
AFWTR
Launch vehicle
Mass (kg)
RCS (m²)

Purposes: comms

External: N2YO · Heavens-Above · Gunter

§ Orbital elements

Epoch: 2026-09-20T12:38:20.778432Z

Period
94.14 min
Inclination
70.0007°
Eccentricity
0.0003728
Mean motion
15.29586983 rev/d
Perigee alt
474.5 km
Apogee alt
479.6 km
Semi-major
6,855.2 km
B*
4.6040e-4
RAAN
300.7414°
Arg perigee
279.9378°
Mean anomaly
80.1376°
Rev number
7,047

§ Raw data

STARLINK-345061 64432U 25129W   26263.52662938  .00013134  00000+0  46040-3 0  99962 64432  70.0007 300.7414 0003728 279.9378  80.1376 15.29586983 70478

JSON: /api/v1/satellites/64432 · /tle

For live sub-satellite position, see the globe view (requires WebGL).

§ Visibility from observer

Set your observer location to see the next 7 days of passes ≥ 10°. The values pass through the URL so the page stays shareable.

No JS? Fill the form by hand. The geolocation button needs JavaScript.